Location: Chircca
(13.7944°S, 72.0608°W)
Time: 04:46:13
(UTC+00:00)

NOSS 3-1 (C) - Pass Details

Date: 14 July 2020
Orbit: 752 x 1456 km, 63.4° (Epoch: 15 June)

Event Time Altitude Azimuth Distance (km) Brightness Sun altitude
Rises 10:41:37 0° 198° (SSW) 3,440 6.0 -7.9°
Reaches altitude 10° 10:44:16 10° 193° (SSW) 2,425 5.3 -7.3°
Maximum altitude 10:49:36 55° 116° (ESE) 925 3.8 -6.1°
Drops below altitude 10° 10:54:34 10° 38° (NE) 2,265 6.5 -4.9°
Sets 10:56:57 0° 34° (NNE) 3,192 7.2 -4.4°
